Location: Aurora
(41.3176°N, 81.3454°W)
Time: 05:02:39
(UTC+00:00)

Daily predictions for brighter satellites

Satellite Brightness Start Highest point End
(mag) Time Altitude Azimuth Time Altitude Azimuth Time Altitude Azimuth
OAO 2 Rocket 4.3 00:02:12 10° SW 00:06:34 31° SSE 00:07:50 27° SE
SeaSat 1 2.9 00:11:24 37° ENE 00:11:43 38° NE 00:16:15 10° N
Cosmos 2219 3.1 00:06:37 10° NNW 00:12:25 85° ENE 00:17:54 11° SSE
USA 305 4.4 00:10:05 10° NNW 00:13:34 23° NNE 00:13:35 23° NNE
YAOGAN 1 2.5 00:11:11 10° S 00:15:30 83° WSW 00:19:51 10° NNW
USA 306 4.4 00:16:22 10° NNW 00:19:37 24° NNE 00:19:37 24° NNE
S3M 3.8 00:15:13 10° S 00:21:18 80° E 00:27:29 10° N
Cosmos 2082 4.0 00:16:51 10° NNW 00:22:21 44° ENE 00:22:40 44° ENE
Cosmos 1892 2.8 00:19:54 10° NNW 00:23:46 74° W 00:26:13 21° S
SL-4 R/B 3.9 00:21:50 10° NW 00:24:00 17° N 00:24:00 17° N
CZ-2C R/B 3.4 00:19:09 10° S 00:24:58 78° WSW 00:30:43 10° NNW
Cosmos 1315 Rocket 3.9 00:22:16 10° S 00:24:27 32° S 00:24:27 32° S
Cosmos 968 Rocket 3.3 00:21:08 10° NNW 00:26:23 79° ENE 00:28:17 40° SSE
Cosmos 1346 Rocket 3.0 00:25:06 10° N 00:28:23 59° N 00:28:23 59° N
Cosmos 2369 3.6 00:25:48 10° S 00:31:25 62° ESE 00:32:23 54° ENE
CRYOSAT 2 4.3 00:27:39 10° N 00:32:33 86° W 00:37:24 10° S
Atlas Centaur 2 3.9 00:25:34 10° SW 00:33:02 35° S 00:35:21 30° SE
Meteor 2-10 Rocket 3.7 00:29:09 10° SSW 00:34:32 75° W 00:39:45 10° N
Okean-O 4.1 00:32:42 10° SSW 00:36:48 37° W 00:40:57 10° NNW
ARGOS 3.0 00:36:35 54° SE 00:37:47 75° ENE 00:43:13 10° N
Cosmos 1486 Rocket 4.1 00:33:23 10° NNW 00:38:43 78° WSW 00:41:02 35° S
NOSS 3-3 (A) 3.7 00:34:06 10° SSW 00:39:48 84° ESE 00:41:50 45° NE
NOSS 3-3 (C) 3.7 00:34:10 10° SSW 00:39:56 84° ESE 00:41:58 45° NE
Meteor 2-1 Rocket 4.3 00:37:16 10° SSW 00:42:46 74° W 00:48:18 10° N
USA 215 3.9 00:42:31 35° NE 00:43:20 36° NNE 00:49:11 10° NW
MOS 1 Rocket 3.9 00:42:53 10° N 00:47:27 57° WNW 00:52:17 10° SSW
Cosmos 1503 Rocket 4.2 00:42:58 10° NNW 00:47:17 58° N 00:47:17 58° N
Cosmos 2227 Rocket 2.5 00:43:10 10° NNW 00:48:45 64° WSW 00:51:12 34° S
CSL-04 Rocket 4.1 00:47:24 10° S 00:52:52 61° WSW 00:58:22 10° NNW
ATLAS 2AS CENTAUR R/B 3.8 00:48:16 10° NNW 00:54:13 29° NNE 00:54:13 29° NNE
Cosmos 2263 Rocket 4.1 00:53:02 10° N 00:54:45 17° NNE 00:54:45 17° NNE
GEOS 3 Rocket 3.8 00:57:17 62° SSW 00:57:52 67° WSW 01:03:14 10° NW
Lacrosse 5 4.2 01:01:41 10° NNW 01:03:38 14° N 01:03:38 14° N
Cosmos 1697 Rocket 3.1 00:59:08 10° SW 01:04:39 61° WNW 01:06:00 47° NNW
H-2A R/B (2) 4.2 00:03:35 10° WSW 01:06:33 47° SSW 01:09:35 38° SSE
H-2A R/B 3.2 01:03:33 10° S 01:08:38 43° W 01:13:50 10° NNW
Cosmos 1980 Rocket 4.1 01:20:49 10° SSW 01:22:19 19° SSW 01:22:19 19° SSW
CZ-4C R/B 4.3 01:21:30 10° NNW 01:25:16 23° NNE 01:25:16 23° NNE
Cosmos 2297 Rocket 4.2 01:24:07 10° NW 01:28:33 24° WSW 01:32:04 14° SSW
Milstar 3 4.2 01:30:33 10° WSW 01:34:45 26° SSW 01:34:45 26° SSW
NOSS 3-2 (C) 4.2 08:44:10 45° ENE 08:44:10 45° ENE 08:48:41 10° NE
Lacrosse 4 Rocket 4.0 08:57:05 17° NE 08:57:05 17° NE 08:58:14 10° NE
CENTAUR R/B 2.7 08:57:17 65° NE 08:57:17 65° NE 09:03:09 10° NE
CZ-2C R/B 3.3 09:01:04 10° NNE 09:05:23 47° E 09:05:23 47° E
Cosmos 1833 Rocket 3.9 09:08:55 20° SSE 09:12:16 38° ESE 09:17:28 10° NE
PAYLOAD A 4.4 09:08:05 10° NNE 09:12:41 63° ENE 09:12:41 63° ENE
In-Cosmos 22 4.4 09:14:21 61° NE 09:14:21 61° NE 09:18:53 10° NNE
Cosmos 1269 Rocket 4.2 09:17:07 69° ENE 09:17:07 69° ENE 09:22:02 10° NNE
Lacrosse 5 rocket 3.1 09:22:56 27° E 09:22:56 27° E 09:25:00 10° ENE
Cosmos 2142 Rocket 4.3 09:19:09 10° N 09:25:24 80° W 09:31:42 10° S
Cosmos 2344 3.6 09:27:00 51° WNW 09:27:32 52° NW 09:35:18 10° NNE
USA 238 DEB 3.9 09:29:27 47° NW 09:29:27 47° NW 09:35:49 10° NNE
USA 238 3.9 09:29:32 48° NW 09:29:32 48° NW 09:35:55 10° NNE
Cosmos 2082 Rocket 3.9 09:26:33 10° SSE 09:31:22 30° ESE 09:36:12 10° NE
Meteor 1-16 Rocket 4.0 09:27:30 10° N 09:32:50 83° E 09:38:09 10° S
NOSS 3-2 (A) 4.1 09:34:08 37° NNW 09:34:08 37° NNW 09:39:28 10° NNE
CZ-4B R/B 3.3 09:36:18 10° SE 09:39:22 30° ENE 09:42:26 10° N
Cosmos 1656 3.7 09:36:09 26° NNW 09:39:31 82° ENE 09:45:12 10° SSE
ATLAS 3B R/B 3.3 09:36:26 10° SSW 09:42:45 52° ESE 09:49:08 10° NE
COSMOS 2406 3.0 09:48:10 39° SSW 09:50:21 79° WNW 09:56:03 10° NNE
Cosmos 2279 Rocket 3.9 09:44:20 10° NNW 09:50:25 58° W 09:56:27 10° S
Cosmos 292 Rocket 4.2 09:57:37 42° SW 09:57:37 42° SW 10:01:18 10° S
Cosmos 1697 Rocket 3.1 09:52:32 10° NNW 09:58:10 63° ENE 10:03:45 10° SE
ADEOS Rocket 2.7 09:54:18 10° S 09:59:39 55° W 10:05:06 10° NNW
BREEZE-M DEB (TANK) 2.2 10:04:39 48° SSE 10:04:39 48° SSE 10:06:21 10° SE
ERS-2 1.9 10:00:44 10° SSE 10:04:22 84° WSW 10:05:48 35° NNW
Cosmos 44 Rocket 3.3 10:04:23 31° NW 10:06:49 71° WSW 10:11:58 10° SSE
Cosmos 1908 3.6 10:08:35 45° SW 10:08:35 45° SW 10:11:37 10° S
SAR-Lupe-4 4.4 10:06:16 10° SSE 10:09:43 51° ENE 10:13:13 10° N
CBERS 1 LM4 rocket 4.4 10:06:20 10° N 10:11:08 54° WNW 10:14:28 19° SW
Abrixas rocket 3.7 10:11:30 22° N 10:11:33 22° NNE 10:13:54 10° ENE
FENGYUN 3A 3.6 10:06:48 10° NNE 10:12:16 90° WNW 10:17:43 10° SSW
Cosmos 1461 3.1 10:10:10 21° SSW 10:13:09 86° SE 10:17:52 10° NNE
TELKOM 3 3.5 10:12:57 70° SW 10:13:16 88° SSE 10:17:01 10° ENE
Cosmos 2251 Rocket 3.9 10:11:57 10° S 10:17:16 69° ESE 10:22:36 10° NNE
SL-14 R/B 3.2 10:13:27 10° S 10:17:24 88° E 10:21:26 10° N
Cosmos 1689 Rocket 3.9 10:15:17 10° SE 10:17:56 32° ENE 10:20:37 10° N
ISS -3.7 10:19:03 52° WNW 10:19:23 56° NNW 10:22:42 10° NE
Cosmos 1980 Rocket 3.0 10:14:37 10° NNW 10:20:04 50° ENE 10:25:29 10° SE
USA 290 2.5 10:19:16 10° S 10:22:26 66° ESE 10:25:39 10° NNE
DELTA 2 R/B (1) 4.4 10:24:50 25° WSW 10:27:15 36° SSW 10:32:21 10° SE
SAR-Lupe-1 4.1 10:23:46 10° SSE 10:27:19 82° ENE 10:30:55 10° N
Cosmos 1300 2.8 10:23:51 10° N 10:27:41 76° E 10:31:29 10° SSE
Cosmos 2360 4.2 10:26:00 10° NNW 10:31:44 89° WSW 10:37:25 10° SSE
ALOS 2.3 10:28:40 10° N 10:33:13 54° WNW 10:37:45 10° SSW
Lacrosse 4 Rocket 2.8 10:33:26 20° NW 10:33:26 20° NW 10:36:20 10° N
NOSS 3-2 (C) 4.4 10:31:39 21° WNW 10:33:57 27° NW 10:39:26 10° NNE
Cosmos 1726 Rocket 3.5 10:32:28 10° N 10:36:57 87° W 10:41:25 10° S
Cosmos 1484 Rocket 3.2 10:35:45 10° N 10:39:21 38° WNW 10:42:52 10° SW
Cosmos 1626 2.7 10:38:25 10° SW 10:41:47 34° WNW 10:45:11 10° N
CZ-2C R/B 3.7 10:40:10 10° NNW 10:43:42 20° WNW 10:44:45 19° W
Cosmos 2278 3.7 10:41:17 10° NNW 10:46:58 86° ENE 10:52:37 10° SSE
Aureole 3 3.8 10:43:16 10° N 10:47:25 82° E 10:52:44 10° S
CENTAUR R/B 3.7 10:44:29 17° WNW 10:47:53 26° NNW 10:53:43 10° NNE
H-2A R/B 4.2 10:44:48 10° NNE 10:48:27 41° E 10:52:06 10° S
Cosmos 2228 3.3 10:44:44 10° NNW 10:48:54 45° W 10:53:04 10° SSW
CZ-4B R/B 2.8 10:45:20 10° N 10:49:22 79° WNW 10:53:35 10° SSW
Cosmos 2322 Rocket 4.4 10:46:03 10° N 10:50:31 23° NE 10:54:56 10° ESE
Cosmos 1606 Rocket 3.9 10:47:45 10° NNW 10:52:02 45° W 10:56:17 10° SSW
ADEOS 4.1 10:47:21 10° N 10:52:08 37° WNW 10:56:53 10° SW
Cosmos 1092 Rocket 4.0 10:47:48 10° SSW 10:53:50 57° W 10:59:58 10° N
Cosmos 1833 Rocket 3.4 10:51:15 10° WSW 10:56:14 32° WNW 11:01:15 10° N
Cosmos 967 Rocket 4.5 10:50:14 10° NW 10:56:29 68° WSW 11:02:40 10° SSE
COSMO-SKYMED 1 2.5 10:52:17 10° S 10:56:35 64° WSW 11:00:55 10° NNW
Elektron 1 4.4 10:56:36 11° WSW 10:59:33 35° NW 11:02:15 10° NNE
Lacrosse 5 rocket 2.3 10:58:36 15° W 11:00:45 25° NNW 11:03:55 10° NNE
Meteor 1-24 Rocket 4.0 10:57:25 10° SSW 11:02:46 46° WNW 11:08:20 10° N
CZ-3 R/B 3.5 10:43:19 10° WSW 11:02:53 40° SSW 11:09:03 10° SE
Meteor 1-31 Rocket 3.7 11:00:00 10° N 11:03:24 28° WNW 11:06:47 10° SW
ATLAS CENTAUR R/B 3.8 11:01:07 10° S 11:04:25 25° ESE 11:07:36 10° ENE
Envisat 4.3 11:00:11 10° NNE 11:05:05 46° E 11:09:57 10° S
Meteor PRIRODA 3.7 11:02:37 10° N 11:06:11 52° WNW 11:09:45 10° SSW
Cosmos 407 Rocket 4.1 11:01:30 10° S 11:06:31 61° ESE 11:11:36 10° NNE
Meteor 2-10 Rocket 3.8 11:02:42 10° N 11:07:43 70° E 11:12:47 10° SSE
Cosmos 2369 4.2 11:04:45 10° NW 11:09:59 39° WSW 11:15:10 10° S
CZ-4B R/B 3.2 11:09:41 10° SW 11:11:40 15° W 11:13:41 10° WNW
Cosmos 1140 Rocket 4.3 11:09:09 10° S 11:14:10 57° ESE 11:19:12 10° NNE
Cosmos 2082 Rocket 2.7 11:10:06 10° SW 11:15:17 38° WNW 11:20:31 10° N
Okean 1-7 Rocket 3.8 11:11:28 10° SSW 11:15:53 49° W 11:20:18 10° N
PSLV R/B 3.9 11:12:03 10° NNE 11:16:12 89° W 11:20:18 10° SSW
Cosmos 1455 3.1 11:13:09 10° N 11:16:57 54° E 11:20:44 10° SSE
CZ-4B DEB 4.5 11:15:46 10° NNE 11:21:17 78° ESE 11:26:44 10° S
Cosmos 2058 Rocket 3.5 11:18:16 10° NNW 11:22:33 43° W 11:26:46 10° SSW
Meteor 2-1 Rocket 4.4 11:18:24 10° N 11:24:07 84° E 11:29:54 10° S
SL-27 R/B 3.9 11:21:39 10° S 11:25:04 44° ESE 11:28:32 10° NNE
SL-16 R/B 3.2 11:20:14 10° NNW 11:25:46 50° ENE 11:31:15 10° SE
